This is the latest recevied weather packets stored in our database for station/object OH2HCY. If no packets are shown the sender has not sent any weather packets the latest 10 day(s).
| Time | Temp. | Humidity | Pressure | Rain* | Wind** | Luminosity | Snow |
|---|---|---|---|---|---|---|---|
| 1777997730 | 10.56° C | 32% | 1002.1 hPa | - | - | - | - |
| 1777997185 | 10° C | 35% | 1002.1 hPa | - | - | - | - |
| 1777996651 | 10.56° C | 33% | 1001.9 hPa | - | - | - | - |
| 1777996110 | 10.56° C | 31% | 1001.7 hPa | - | - | - | - |
| 1777995555 | 10.56° C | 32% | 1001.7 hPa | - | - | - | - |
| 1777995003 | 10.56° C | 33% | 1001.5 hPa | - | - | - | - |
| 1777994470 | 11.11° C | 32% | 1001.3 hPa | - | - | - | - |
| 1777993935 | 11.11° C | 33% | 1001.4 hPa | - | - | - | - |
| 1777993360 | 10.56° C | 34% | 1001.5 hPa | - | - | - | - |
| 1777992785 | 10.56° C | 35% | 1001.6 hPa | - | - | - | - |
| 1777992250 | 10.56° C | 33% | 1001.4 hPa | - | - | - | - |
| 1777991684 | 10.56° C | 35% | 1001.5 hPa | - | - | - | - |
| 1777991130 | 11.11° C | 35% | 1001.4 hPa | - | - | - | - |
| 1777990610 | 10.56° C | 37% | 1001.7 hPa | - | - | - | - |
| 1777989555 | 11.11° C | 34% | 1001.2 hPa | - | - | - | - |
| 1777988999 | 10.56° C | 35% | 1001.5 hPa | - | - | - | - |
| 1777988440 | 11.11° C | 34% | 1001.1 hPa | - | - | - | - |
| 1777987920 | 10.56° C | 37% | 1001.1 hPa | - | - | - | - |
| 1777987380 | 10.56° C | 37% | 1001.2 hPa | - | - | - | - |
| 1777986850 | 10.56° C | 39% | 1001.2 hPa | - | - | - | - |
| 1777986312 | 10.56° C | 39% | 1001.2 hPa | - | - | - | - |
| 1777985784 | 10° C | 40% | 1001.5 hPa | - | - | - | - |
| 1777985235 | 10° C | 42% | 1001.4 hPa | - | - | - | - |
| 1777984680 | 10.56° C | 42% | 1001.2 hPa | - | - | - | - |
| 1777984180 | 10° C | 42% | 1001.2 hPa | - | - | - | - |
* Rain since midnight (hover to see other rain measurements)
** Current wind speed in m/s (hover to see current wind gust speed)